Torna al catalogo

ONEWEB-0702

AttivoComunicazioniPO
NORAD 61608·PAYLOAD·🇬🇧 United Kingdom

Lanciato Oct 20, 2024 da Vandenberg Space Force Base

Loading…

Prossimi Passaggi (prossime 24 ore)

TLE

AggiornatoSource: CelesTrak SupGP

Epoca: Sep 14, 2026, 16:34 UTC

1 61608C 24188Q   26257.69045556  .00004038  00000+0  11408-1 0  2572
2 61608  87.8990   3.2053 0000643  88.9843  15.8967 13.11413567    19

Traccia ONEWEB-0702 in tempo reale con AllMySat

Download on the App Store